Weather History for Clinton, MO

Change the Weather History Date:

Thursday, January 17, 2013

  Actual Average (KSZL) Record (KSZL)
Temperature  
Mean Temperature 36 °F -  
Max Temperature 42 °F 37 °F 48 °F (1999)
Min Temperature 30 °F 20 °F 1 °F (1997)
Degree Days  
Heating Degree Days 29    
Moisture  
Dew Point 30 °F    
Average Humidity 82    
Maximum Humidity 100    
Minimum Humidity 57    
Precipitation  
Precipitation 0.00 in - - ()
Sea Level Pressure  
Sea Level Pressure 30.37 in    
Wind  
Wind Speed 5 mph (North)    
Max Wind Speed 14 mph    
Max Gust Speed -    
Visibility 10 miles    
Events      
Averages and records for this station are not official NWS values.
T = Trace of Precipitation, MM = Missing Value Source: NWS Daily Summary

Daily Weather History Graph

Daily Weather History Graph

Search for Another Location

Airport:

Trip Planner

Search our weather history database for the weather conditions in past years. The results will help you decide how hot, cold, wet, or windy it might be!

Date:

Astronomy

Jan. 17, 2013 Rise Set
Actual Time 7:29 AM CST 5:20 PM CST
Civil Twilight 7:00 AM CST 5:49 PM CST
Nautical Twilight 6:28 AM CST 6:21 PM CST
Astronomical Twilight 5:56 AM CST 6:53 PM CST
Moon 10:42 AM CST (1/17) No Moon Set
Length of Visible Light 10h 48m
Length of Day
9h 51m
Waxing Crescent, 38% of the Moon is Illuminated
Jan 17
Waxing Crescent
Jan 18
First Quarter
Jan 26
Full
Feb 3
Last Quarter
Feb 10
New

Hourly Weather History & Observations

Time (CST) Temp. Windchill Dew Point Humidity Pressure Visibility Wind Dir Wind Speed Gust Speed Precip Events Conditions
12:15 AM 30.2 °F - 24.8 °F 80% 30.16 in 10.0 mi Calm Calm - N/A   Clear
12:35 AM 30.2 °F - 24.8 °F 80% 30.17 in 10.0 mi Calm Calm - N/A   Clear
12:55 AM 30.2 °F - 24.8 °F 80% 30.18 in 10.0 mi Calm Calm - N/A   Clear
1:15 AM 32.0 °F - 24.8 °F 75% 30.19 in 10.0 mi Calm Calm - N/A   Clear
1:35 AM 32.0 °F - 26.6 °F 80% 30.20 in 10.0 mi Calm Calm - N/A   Clear
1:55 AM 32.0 °F 24.8 °F 28.4 °F 87% 30.21 in 10.0 mi NNW 8.1 mph - N/A   Clear
2:15 AM 35.6 °F 28.6 °F 32.0 °F 87% 30.21 in 10.0 mi North 9.2 mph - N/A   Clear
2:35 AM 35.6 °F 28.0 °F 32.0 °F 87% 30.22 in 10.0 mi North 10.4 mph - N/A   Clear
2:55 AM 35.6 °F 27.5 °F 32.0 °F 87% 30.23 in 10.0 mi North 11.5 mph - N/A   Clear
3:35 AM 35.6 °F 28.0 °F 32.0 °F 87% 30.25 in 10.0 mi North 10.4 mph - N/A   Clear
3:55 AM 33.8 °F 26.4 °F 32.0 °F 93% 30.25 in 10.0 mi North 9.2 mph - N/A   Clear
4:15 AM 33.8 °F 27.0 °F 32.0 °F 93% 30.26 in 10.0 mi North 8.1 mph - N/A   Clear
4:35 AM 33.8 °F 26.4 °F 32.0 °F 93% 30.27 in 10.0 mi North 9.2 mph - N/A   Clear
4:55 AM 33.8 °F 25.3 °F 32.0 °F 93% 30.28 in 10.0 mi North 11.5 mph - N/A   Clear
5:15 AM 33.8 °F 25.8 °F 32.0 °F 93% 30.29 in 10.0 mi North 10.4 mph - N/A   Clear
5:35 AM 33.8 °F 25.8 °F 32.0 °F 93% 30.30 in 10.0 mi North 10.4 mph - N/A   Clear
5:55 AM 32.0 °F 25.6 °F 32.0 °F 100% 30.31 in 10.0 mi North 6.9 mph - N/A   Clear
6:15 AM 32.0 °F 25.6 °F 30.2 °F 93% 30.32 in 10.0 mi North 6.9 mph - N/A   Clear
6:35 AM 30.2 °F 23.4 °F 30.2 °F 100% 30.34 in 10.0 mi NNW 6.9 mph - N/A   Clear
6:55 AM 30.2 °F 24.3 °F 30.2 °F 100% 30.35 in 9.0 mi NNW 5.8 mph - N/A   Clear
7:15 AM 30.2 °F 25.4 °F 30.2 °F 100% 30.37 in 9.0 mi NW 4.6 mph - N/A   Scattered Clouds
7:35 AM 32.0 °F 25.6 °F 32.0 °F 100% 30.38 in 9.0 mi NNW 6.9 mph - N/A   Overcast
7:55 AM 32.0 °F 23.6 °F 32.0 °F 100% 30.38 in 7.0 mi North 10.4 mph - N/A   Overcast
8:15 AM 32.0 °F 22.1 °F 32.0 °F 100% 30.39 in 7.0 mi North 13.8 mph - N/A   Overcast
8:35 AM 33.8 °F 25.3 °F 32.0 °F 93% 30.40 in 8.0 mi North 11.5 mph - N/A   Overcast
8:55 AM 33.8 °F 24.8 °F 30.2 °F 87% 30.41 in 8.0 mi North 12.7 mph - N/A   Overcast
9:15 AM 33.8 °F 25.3 °F 30.2 °F 87% 30.42 in 9.0 mi North 11.5 mph - N/A   Overcast
9:35 AM 33.8 °F 27.7 °F 32.0 °F 93% 30.43 in 9.0 mi North 6.9 mph - N/A   Mostly Cloudy
9:55 AM 35.6 °F 28.6 °F 32.0 °F 87% 30.44 in 9.0 mi NNE 9.2 mph - N/A   Partly Cloudy
10:15 AM 35.6 °F 28.6 °F 32.0 °F 87% 30.45 in 9.0 mi North 9.2 mph - N/A   Mostly Cloudy
10:35 AM 35.6 °F 28.0 °F 30.2 °F 81% 30.46 in 10.0 mi North 10.4 mph - N/A   Partly Cloudy
10:55 AM 37.4 °F 30.8 °F 30.2 °F 75% 30.46 in 8.0 mi North 9.2 mph - N/A   Clear
11:15 AM 37.4 °F 30.8 °F 30.2 °F 75% 30.46 in 10.0 mi North 9.2 mph - N/A   Clear
11:35 AM 37.4 °F 30.8 °F 30.2 °F 75% 30.46 in 9.0 mi NNE 9.2 mph - N/A   Clear
11:55 AM 37.4 °F 32.1 °F 30.2 °F 75% 30.45 in 10.0 mi North 6.9 mph - N/A   Clear
12:15 PM 39.2 °F 34.2 °F 30.2 °F 70% 30.45 in 8.0 mi NNE 6.9 mph - N/A   Clear
12:35 PM 39.2 °F 33.6 °F 30.2 °F 70% 30.45 in 10.0 mi North 8.1 mph - N/A   Clear
12:55 PM 41.0 °F 35.2 °F 30.2 °F 65% 30.44 in 9.0 mi North 9.2 mph - N/A   Clear
1:15 PM 41.0 °F 35.2 °F 28.4 °F 61% 30.44 in 10.0 mi North 9.2 mph - N/A   Clear
1:35 PM 41.0 °F 38.0 °F 28.4 °F 61% 30.43 in 10.0 mi NNW 4.6 mph - N/A   Clear
1:55 PM 42.8 °F 39.3 °F 28.4 °F 57% 30.43 in 9.0 mi NNW 5.8 mph - N/A   Clear
2:15 PM 42.8 °F 40.1 °F 30.2 °F 61% 30.43 in 9.0 mi North 4.6 mph - N/A   Clear
2:35 PM 42.8 °F - 30.2 °F 61% 30.43 in 10.0 mi Calm Calm - N/A   Clear
2:55 PM 42.8 °F - 30.2 °F 61% 30.43 in 10.0 mi Calm Calm - N/A   Clear
3:15 PM 42.8 °F - 30.2 °F 61% 30.43 in 10.0 mi Calm Calm - N/A   Clear
3:35 PM 42.8 °F - 28.4 °F 57% 30.44 in 10.0 mi Calm Calm - N/A   Clear
3:55 PM 42.8 °F - 30.2 °F 61% 30.44 in 10.0 mi Calm Calm - N/A   Clear
4:55 PM 41.0 °F - 30.2 °F 65% 30.45 in 10.0 mi Calm Calm - N/A   Clear
5:35 PM 37.4 °F - 28.4 °F 70% 30.45 in 10.0 mi Calm Calm - N/A   Clear
7:55 PM 32.0 °F - 30.2 °F 93% 30.47 in 10.0 mi Calm Calm - N/A   Clear
8:15 PM 32.0 °F - 30.2 °F 93% 30.47 in 10.0 mi Calm Calm - N/A   Clear
8:55 PM 32.0 °F - 28.4 °F 87% 30.47 in 10.0 mi Calm Calm - N/A   Clear
9:15 PM 32.0 °F - 28.4 °F 87% 30.47 in 10.0 mi Calm Calm - N/A   Clear
9:35 PM 32.0 °F - 28.4 °F 87% 30.47 in 10.0 mi Calm Calm - N/A   Clear
9:55 PM 32.0 °F - 28.4 °F 87% 30.47 in 10.0 mi Calm Calm - N/A   Clear
11:15 PM 32.0 °F - 28.4 °F 87% 30.46 in 10.0 mi Calm Calm - N/A   Clear
11:35 PM 32.0 °F - 28.4 °F 87% 30.46 in 10.0 mi Calm Calm - N/A   Clear
11:55 PM 32.0 °F - 28.4 °F 87% 30.45 in 10.0 mi Calm Calm - N/A   Clear